Location: Unspecified
(0.0000°N, 0.0000°E)
Time: 16:31:49
(UTC+00:00)

Vanguard 1 Rocket - Pass Details

Date: 19 January 2020
Orbit: 650 x 4226 km, 34.3° (Epoch: 24 February)

Event Time Altitude Azimuth Distance (km) Brightness Sun altitude
Rises 19:36:37 0° 301° (WNW) 8,363 12.8 -20.1°
Reaches altitude 10° 19:42:25 10° 299° (WNW) 7,420 12.5 -21.4°
Maximum altitude 20:08:15 68° 220° (SW) 3,692 10.4 -27.4°
Drops below altitude 10° 20:24:24 10° 138° (SE) 4,959 11.0 -31.1°
Sets 20:27:26 0° 135° (SE) 5,595 11.2 -31.8°
